FW0976 Weather Reports


time (UTC)temp
F
wind
direction
speed
knots
gust
knots
rain 1hr
in
rain 24hr
in
rain mn
in
humidity
%
barometer
mb
20260510091243 63 87 0.0 1.7 0.35 0.35 0.35 95 1012.2
20260510090659 63 52 0.0 1.7 0.30 0.30 0.31 95 1013.5
20260510090240 62 61 0.0 1.7 0.28 0.28 0.28 94 1013.5
20260510085739 62 64 0.0 1.7 0.23 0.23 0.23 94 1013.4
20260510085158 63 62 0.9 9.6 0.20 0.20 0.20 93 1013.7
20260510084738 64 85 0.9 9.6 0.16 0.16 0.16 92 1014.3
20260510084239 65 68 0.9 5.2 0.12 0.12 0.12 92 1014.2
20260510083734 66 337 0.9 7.8 0.09 0.09 0.10 91 1014.4
20260510083235 67 0 0.9 7.8 0.03 0.03 0.04 88 1014.1
20260510082734 68 10 0.0 1.7 0.01 0.01 0.01 87 1012.8
20260510082152 68 28 0.0 1.7 0.00 0.00 0.00 86 1012.8
20260510082145 77 228 0.0 1.7 0.00 0.00 0.00 49 1020.2
20260510081851 58 173 0.0 0.0 0.00 0.00 0.00 72 1019.0
20260510081709 68 279 0.0 1.7 0.00 0.00 0.00 85 1012.4
20260510081211 68 30 0.0 1.7 0.00 0.00 0.00 86 1011.9
20260510080713 68 50 0.0 1.7 0.00 0.00 0.00 87 1011.6
20260510080216 68 11 0.0 7.8 0.00 0.00 0.00 88 1011.3
20260510075714 68 62 0.9 7.8 0.00 0.00 0.00 89 1011.2
20260510075215 68 34 0.9 3.5 0.00 0.00 0.00 91 1011.3
20260510074713 68 12 0.9 4.3 0.00 0.00 0.00 91 1011.6
20260510074206 69 19 0.9 7.8 0.00 0.00 0.00 91 1011.7
20260510073704 69 19 0.9 7.8 0.00 0.00 0.00 92 1011.4
20260510073203 70 54 0.0 1.7 0.00 0.00 0.00 93 1010.9
20260510072657 71 73 0.0 1.7 0.00 0.00 0.00 94 1010.3
20260510072159 71 73 0.0 1.7 0.00 0.00 0.00 94 1009.7
20260510071700 72 64 0.0 1.7 0.00 0.00 0.00 94 1009.5
20260510071204 72 94 0.0 1.7 0.00 0.00 0.00 94 1009.7
20260510070707 72 96 0.0 0.9 0.00 0.00 0.00 94 1010.0
20260510070209 72 53 0.0 0.9 0.00 0.00 0.00 94 1010.2
20260510065709 72 129 0.0 1.7 0.00 0.00 0.00 93 1010.2
20260510065217 73 100 0.0 1.7 0.00 0.00 0.00 93 1010.1
20260510064718 73 91 0.0 3.5 0.00 0.00 0.00 92 1009.8
20260510064220 73 84 0.0 3.5 0.00 0.00 0.00 92 1011.1
20260510063718 73 29 0.0 1.7 0.00 0.00 0.00 92 1011.6
20260510062705 73 19 0.0 1.7 0.00 0.00 0.00 92 1011.9
20260510062211 73 16 0.0 1.7 0.00 0.00 0.00 93 1011.9
20260510061711 73 348 0.0 1.7 0.00 0.00 0.00 93 1012.1
20260510061212 73 319 0.0 0.9 0.00 0.00 0.00 93 1012.1
20260510060235 73 55 0.0 1.7 0.00 0.00 0.00 93 1011.9
20260510055650 73 341 0.0 1.7 0.00 0.00 0.00 93 1012.1
20260510055154 73 340 0.0 1.7 0.00 0.00 0.00 93 1011.9
20260510054657 73 32 0.0 1.7 0.00 0.00 0.00 93 1011.6
20260510052652 73 118 0.0 0.9 0.00 0.00 0.00 92 1009.7
20260510052156 73 130 0.0 0.9 0.00 0.00 0.00 92 1009.5
20260510051658 73 128 0.0 0.9 0.00 0.00 0.00 92 1009.3
20260510051202 73 126 0.0 0.9 0.00 0.00 0.00 92 1009.1
20260510050705 73 126 0.0 0.9 0.00 0.00 0.00 91 1008.9
20260510050209 73 142 0.0 0.9 0.00 0.00 0.00 91 1008.9
20260510045708 73 133 0.0 0.9 0.00 0.00 0.00 91 1008.9
20260510045210 73 126 0.0 0.9 0.00 0.00 0.00 91 1008.8
20260510044156 72 123 0.0 0.9 0.00 0.00 0.00 89 1008.7
20260510043656 72 128 0.0 0.9 0.00 0.00 0.00 88 1008.4
20260510043158 72 125 0.0 0.9 0.00 0.00 0.00 88 1008.4
20260510042655 72 106 0.0 0.9 0.00 0.00 0.00 87 1008.3
20260510042200 71 126 0.0 0.9 0.00 0.00 0.00 87 1008.4
20260510041705 71 123 0.0 0.9 0.00 0.00 0.00 86 1008.4
20260510040650 71 122 0.0 0.9 0.00 0.00 0.00 86 1008.3
20260510040156 71 120 0.0 0.9 0.00 0.00 0.00 85 1008.2
20260510035148 72 119 0.0 0.0 0.00 0.00 0.00 84 1008.5
20260510034141 72 119 0.0 0.0 0.00 0.00 0.00 83 1008.6
20260510033644 72 119 0.0 0.9 0.00 0.00 0.00 83 1008.6
20260510032203 72 119 0.0 0.9 0.00 0.00 0.00 82 1008.6
20260510031704 72 119 0.0 0.9 0.00 0.00 0.00 82 1008.6
20260510031207 72 119 0.0 0.9 0.00 0.00 0.00 82 1008.5
20260510030712 72 119 0.0 0.0 0.00 0.00 0.00 82 1008.5
20260510030218 73 112 0.0 0.9 0.00 0.00 0.00 82 1008.4
20260510025633 73 111 0.0 0.9 0.00 0.00 0.00 82 1008.5
20260510025136 73 105 0.0 0.9 0.00 0.00 0.00 81 1008.5
20260510024639 73 105 0.0 0.9 0.00 0.00 0.00 81 1008.5
20260510024143 73 104 0.0 0.9 0.00 0.00 0.00 80 1008.5
20260510023136 74 103 0.0 0.9 0.00 0.00 0.00 79 1008.7
20260510022718 74 103 0.0 0.9 0.00 0.00 0.00 79 1008.7
20260510022140 74 103 0.0 0.9 0.00 0.00 0.00 79 1008.6
20260510021642 74 103 0.0 0.9 0.00 0.00 0.00 78 1008.6
20260510021145 74 103 0.0 0.9 0.00 0.00 0.00 78 1008.4
20260510020642 74 103 0.0 0.0 0.00 0.00 0.00 78 1008.4
20260510020145 75 103 0.0 0.0 0.00 0.00 0.00 78 1008.3
20260510015209 75 103 0.0 0.0 0.00 0.00 0.00 77 1008.3
20260510014626 76 103 0.0 0.0 0.00 0.00 0.00 76 1008.2
20260510013654 76 103 0.0 0.9 0.00 0.00 0.00 75 1008.1
20260510012201 77 103 0.0 0.9 0.00 0.00 0.00 74 1008.1
20260510011702 78 103 0.0 0.9 0.00 0.00 0.00 73 1007.9
20260510011203 78 103 0.0 0.9 0.00 0.00 0.00 72 1007.8
20260510010702 78 103 0.0 0.0 0.00 0.00 0.00 72 1007.8
20260510010201 79 103 0.0 0.9 0.00 0.00 0.00 71 1007.7
20260510005701 79 107 0.0 0.9 0.00 0.00 0.00 69 1007.7
20260510005123 80 107 0.0 0.9 0.00 0.00 0.00 69 1007.6
20260510004622 80 107 0.0 0.9 0.00 0.00 0.00 69 1007.6
20260510004121 80 107 0.0 0.9 0.00 0.00 0.00 68 1007.6
20260510003705 81 106 0.0 0.9 0.00 0.00 0.00 68 1007.5
20260510003208 81 109 0.0 0.9 0.00 0.00 0.00 67 1007.5
20260510002629 81 109 0.0 0.9 0.00 0.00 0.00 67 1007.4
20260510002131 81 109 0.0 0.9 0.00 0.00 0.00 66 1007.5
20260510001632 82 103 0.0 0.9 0.00 0.00 0.00 66 1007.5
20260510001136 82 100 0.0 0.9 0.00 0.00 0.00 66 1007.5
20260510000123 82 130 0.0 0.9 0.00 0.00 0.00 64 1007.6
20260509235146 82 139 0.0 0.9 0.00 0.00 0.00 64 1007.7
20260509234648 82 125 0.0 0.9 0.00 0.00 0.00 65 1007.7
20260509234150 82 120 0.0 0.9 0.00 0.00 0.00 65 1007.7
20260509233651 83 118 0.0 0.9 0.00 0.00 0.00 65 1007.8
20260509233151 83 107 0.0 0.9 0.00 0.00 0.00 65 1007.8
20260509232649 83 126 0.0 0.9 0.00 0.00 0.00 64 1007.8
20260509232146 83 170 0.0 0.9 0.00 0.00 0.00 64 1007.8
20260509231643 83 117 0.0 0.9 0.00 0.00 0.00 64 1007.8
20260509231140 83 111 0.0 0.9 0.00 0.00 0.00 64 1007.7
20260509230125 83 131 0.0 0.9 0.00 0.00 0.00 63 1007.7
20260509225618 83 119 0.0 0.9 0.00 0.00 0.00 64 1007.8
20260509225124 84 121 0.0 0.9 0.00 0.00 0.00 64 1007.8
20260509224619 84 118 0.0 0.9 0.00 0.00 0.00 64 1007.7
20260509224115 85 111 0.0 0.9 0.00 0.00 0.00 64 1007.7
20260509223616 84 143 0.0 0.9 0.00 0.00 0.00 65 1007.7
20260509223119 84 101 0.0 0.9 0.00 0.00 0.00 65 1007.7
20260509222619 84 121 0.0 0.9 0.00 0.00 0.00 66 1007.6
20260509222117 84 110 0.0 0.9 0.00 0.00 0.00 64 1007.6
20260509221615 84 136 0.0 1.7 0.00 0.00 0.00 66 1007.6
20260509221113 85 127 0.0 1.7 0.00 0.00 0.00 64 1007.5
20260509220611 85 82 0.0 0.9 0.00 0.00 0.00 64 1007.5
20260509220110 85 140 0.0 0.9 0.00 0.00 0.00 65 1007.6
20260509215613 84 122 0.0 5.2 0.00 0.00 0.00 65 1007.5
20260509215114 85 56 0.0 5.2 0.00 0.00 0.00 65 1007.6
20260509214613 85 62 0.0 4.3 0.00 0.00 0.00 63 1007.6
20260509214111 85 126 0.0 4.3 0.00 0.00 0.00 63 1007.6
20260509213613 85 145 0.0 1.7 0.00 0.00 0.00 62 1007.7
20260509213113 85 115 0.0 0.9 0.00 0.00 0.00 62 1007.7
20260509212617 85 104 0.0 0.9 0.00 0.00 0.00 64 1007.8
20260509212114 85 115 0.0 0.9 0.00 0.00 0.00 64 1007.9
20260509211615 85 124 0.0 1.7 0.00 0.00 0.00 64 1008.0
20260509210124 85 117 0.0 0.9 0.00 0.00 0.00 66 1008.2
20260509205105 85 104 0.0 0.9 0.00 0.00 0.00 68 1008.3
20260509204607 85 119 0.0 1.7 0.00 0.00 0.00 66 1008.3
20260509204109 87 109 0.0 1.7 0.00 0.00 0.00 66 1008.4
20260509203611 85 96 0.0 0.9 0.00 0.00 0.00 68 1008.4
20260509203116 85 55 0.0 1.7 0.00 0.00 0.00 65 1008.4
20260509202615 86 102 0.0 1.7 0.00 0.00 0.00 65 1008.4
20260509202116 87 104 0.0 1.7 0.00 0.00 0.00 64 1008.4
20260509201614 86 58 0.0 0.9 0.00 0.00 0.00 66 1008.5
20260509201112 85 110 0.0 1.7 0.00 0.00 0.00 67 1008.5
20260509200612 86 136 0.0 1.7 0.00 0.00 0.00 66 1008.6
20260509200111 86 52 0.0 1.7 0.00 0.00 0.00 66 1008.6
20260509195058 87 63 0.0 2.6 0.00 0.00 0.00 63 1008.7
20260509194641 87 61 0.0 1.7 0.00 0.00 0.00 66 1008.8
20260509194141 87 67 0.0 0.9 0.00 0.00 0.00 67 1008.8
20260509193641 86 111 0.0 0.9 0.00 0.00 0.00 68 1008.9
20260509193059 86 56 0.0 0.9 0.00 0.00 0.00 66 1008.9
20260509192559 87 77 0.0 0.9 0.00 0.00 0.00 65 1008.9
20260509192142 87 55 0.0 1.7 0.00 0.00 0.00 67 1008.9
20260509191120 86 64 0.0 0.9 0.00 0.00 0.00 67 1009.1
20260509190622 87 89 0.0 0.9 0.00 0.00 0.00 65 1009.1
20260509190122 87 330 0.0 0.9 0.00 0.00 0.00 68 1009.1
20260509185622 87 55 0.0 0.9 0.00 0.00 0.00 67 1009.2
20260509185114 86 90 0.0 0.9 0.00 0.00 0.00 68 1009.2
20260509184615 86 61 0.0 0.9 0.00 0.00 0.00 69 1009.2
20260509184116 85 66 0.0 0.9 0.00 0.00 0.00 69 1009.2
20260509183618 86 58 0.0 1.7 0.00 0.00 0.00 68 1009.4
20260509182601 85 64 0.0 0.9 0.00 0.00 0.00 72 1009.5
20260509181632 86 56 0.0 1.7 0.00 0.00 0.00 69 1009.4
20260509181136 85 53 0.0 1.7 0.00 0.00 0.00 68 1009.5
20260509180639 85 21 0.0 1.7 0.00 0.00 0.00 72 1009.5
20260509180100 85 108 0.0 0.9 0.00 0.00 0.00 69 1009.6
20260509175600 85 49 0.0 1.7 0.00 0.00 0.00 71 1009.6
20260509175058 85 63 0.0 1.7 0.00 0.00 0.00 72 1009.7
20260509174639 85 63 0.0 0.9 0.00 0.00 0.00 71 1009.7
20260509173620 84 121 0.0 0.9 0.00 0.00 0.00 72 1009.8
20260509173118 84 56 0.0 1.7 0.00 0.00 0.00 72 1009.9
20260509172616 85 76 0.0 1.7 0.00 0.00 0.00 68 1009.9
20260509172112 85 59 0.0 0.9 0.00 0.00 0.00 72 1009.9
20260509171610 84 79 0.0 1.7 0.00 0.00 0.00 72 1009.9
20260509170628 85 63 0.0 1.7 0.00 0.00 0.00 71 1010.0
20260509170127 85 71 0.0 1.7 0.00 0.00 0.00 69 1010.0
20260509165629 85 58 0.0 1.7 0.00 0.00 0.00 71 1010.0
20260509165130 85 26 0.0 1.7 0.00 0.00 0.00 71 1010.1
20260509164112 84 351 0.0 0.9 0.00 0.00 0.00 73 1010.2
20260509163614 83 60 0.0 1.7 0.00 0.00 0.00 75 1010.2
20260509163114 82 46 0.0 1.7 0.00 0.00 0.00 74 1010.2
20260509162610 82 24 0.0 1.7 0.00 0.00 0.00 76 1010.1
20260509161554 80 59 0.0 0.9 0.00 0.00 0.00 79 1010.1
20260509161055 79 339 0.0 1.7 0.00 0.00 0.00 79 1010.1
20260509160556 79 311 0.0 1.7 0.00 0.00 0.00 78 1010.1
20260509160056 79 27 0.0 0.9 0.00 0.00 0.00 79 1010.1
20260509155121 79 90 0.0 0.9 0.00 0.00 0.00 81 1010.0
20260509154559 78 104 0.0 0.9 0.00 0.00 0.00 82 1009.9
20260509154059 77 343 0.0 0.9 0.00 0.00 0.00 83 1010.0
20260509153600 76 0 0.0 3.5 0.00 0.00 0.00 82 1010.1
20260509153059 76 22 0.0 3.5 0.00 0.00 0.00 83 1010.0
20260509152600 76 76 0.0 1.7 0.00 0.00 0.00 82 1010.0
20260509152058 77 68 0.0 0.9 0.00 0.00 0.00 84 1010.0
20260509151559 76 77 0.0 0.9 0.00 0.00 0.00 85 1010.1
20260509151104 76 37 0.0 0.9 0.00 0.01 0.00 87 1010.1
20260509150606 75 80 0.0 1.7 0.00 0.02 0.00 86 1010.1
20260509150110 75 32 0.0 1.7 0.00 0.02 0.00 86 1010.1
20260509145609 75 76 0.0 0.9 0.00 0.02 0.00 87 1010.1
20260509145110 74 78 0.0 0.9 0.00 0.02 0.00 88 1010.1
20260509144612 74 0 0.0 0.9 0.00 0.02 0.00 89 1010.1
20260509144112 74 5 0.0 0.9 0.00 0.02 0.00 89 1009.9
20260509143607 74 344 0.0 0.9 0.00 0.02 0.00 89 1009.9
20260509143107 74 327 0.0 1.7 0.00 0.02 0.00 91 1010.0
20260509142607 74 12 0.0 3.5 0.00 0.02 0.00 93 1009.9
20260509142104 73 14 0.0 3.5 0.00 0.02 0.00 94 1009.8
20260509141604 73 326 0.0 0.9 0.00 0.02 0.00 95 1009.9
20260509141105 73 336 0.0 1.7 0.00 0.02 0.00 95 1009.9
20260509140609 72 23 0.0 1.7 0.00 0.02 0.00 96 1009.8
20260509140112 72 51 0.0 0.9 0.00 0.02 0.00 97 1009.8
20260509135104 71 70 0.0 0.9 0.00 0.02 0.00 98 1009.8
20260509134602 71 134 0.0 0.9 0.00 0.02 0.00 98 1009.7
20260509134106 71 134 0.0 0.9 0.00 0.02 0.00 98 1009.8
20260509133606 71 139 0.0 0.9 0.00 0.02 0.00 99 1009.7
20260509133111 70 139 0.0 0.9 0.00 0.02 0.00 98 1009.6
20260509132609 70 140 0.0 0.0 0.00 0.02 0.00 98 1009.6
20260509132112 70 140 0.0 0.9 0.00 0.02 0.00 98 1009.7
20260509131604 69 140 0.0 0.9 0.00 0.02 0.00 98 1009.7
20260509131106 69 140 0.0 0.9 0.00 0.02 0.00 98 1009.7
20260509130602 69 141 0.0 0.9 0.00 0.02 0.00 98 1009.6
20260509130106 69 141 0.0 0.9 0.00 0.03 0.00 99 1009.6
20260509125611 69 138 0.0 0.9 0.00 0.03 0.00 99 1009.6
20260509125114 68 140 0.0 0.9 0.00 0.04 0.00 98 1009.7
20260509124612 68 140 0.0 0.9 0.00 0.04 0.00 98 1009.6
20260509124112 68 140 0.0 0.9 0.00 0.04 0.00 98 1009.6
20260509122535 68 140 0.0 0.9 0.00 0.04 0.00 98 1009.5
20260509122036 67 140 0.0 0.9 0.00 0.04 0.00 98 1009.5
20260509121536 67 140 0.0 0.9 0.00 0.04 0.00 98 1009.7
20260509121041 67 141 0.0 0.0 0.00 0.04 0.00 98 1009.7
20260509120109 67 143 0.0 0.9 0.00 0.05 0.00 98 1009.4
20260509115608 67 143 0.0 0.9 0.00 0.06 0.00 98 1009.3
20260509115108 67 143 0.0 0.9 0.00 0.06 0.00 98 1009.3
20260509114604 67 143 0.0 0.0 0.00 0.06 0.00 98 1009.3
20260509114103 67 143 0.0 0.9 0.00 0.06 0.00 98 1009.3
20260509113602 67 143 0.0 0.9 0.00 0.06 0.00 98 1009.2
20260509113017 67 143 0.0 0.9 0.00 0.06 0.00 97 1009.1
20260509112604 67 143 0.0 0.9 0.00 0.06 0.00 97 1008.8
20260509112022 67 143 0.0 0.9 0.00 0.06 0.00 97 1008.8
20260509111525 67 143 0.0 0.9 0.00 0.06 0.00 97 1008.6
20260509111031 67 143 0.0 0.9 0.00 0.06 0.00 97 1008.5
20260509110024 67 143 0.0 0.9 0.00 0.06 0.00 97 1008.5
20260509105527 67 143 0.0 0.9 0.00 0.06 0.00 97 1008.5
20260509105035 67 143 0.0 0.9 0.00 0.06 0.00 97 1008.5
20260509104538 67 143 0.0 0.9 0.00 0.06 0.00 97 1008.4
20260509104043 67 143 0.0 0.9 0.00 0.06 0.00 97 1008.5
20260509103033 67 143 0.0 0.9 0.00 0.09 0.00 97 1008.3
20260509102538 67 143 0.0 0.9 0.00 0.19 0.00 97 1008.3
20260509102046 67 143 0.0 0.9 0.00 0.21 0.00 97 1008.1
20260509101548 67 143 0.0 0.9 0.00 0.21 0.00 97 1008.1
20260509101052 67 143 0.0 0.9 0.00 0.21 0.00 97 1007.9
20260509100037 67 143 0.0 0.0 0.00 0.21 0.00 97 1007.8
20260509095541 67 142 0.0 0.9 0.00 0.21 0.00 97 1007.6
20260509095043 67 142 0.0 0.9 0.00 0.21 0.00 97 1007.6
20260509094547 67 142 0.0 0.9 0.00 0.21 0.00 97 1007.6
20260509094051 67 163 0.0 0.9 0.00 0.21 0.00 97 1007.4
20260509093034 68 165 0.0 0.9 0.00 0.21 0.00 97 1007.5
20260509092022 68 136 0.0 0.9 0.00 0.21 0.00 96 1007.6
20260509091519 68 100 0.0 0.9 0.00 0.21 0.00 96 1007.7